カタログに戻る

THOR ABLESTAR DEB

運用中PO
NORAD 1521·DEBRIS·🇺🇸 United States

打ち上げ Aug 13, 1965 から Vandenberg Space Force Base

Loading…

次のパス (今後24時間)

TLE

最新Source: Space-Track

元期: Sep 14, 2026, 08:15 UTC

1 01521U 65065K   26257.34382414  .00000027  00000-0  36358-4 0  9990
2 01521  90.0283 210.5180 0070078  14.3612 149.7503 13.33287770971286

AllMySatでTHOR ABLESTAR DEBをリアルタイム追跡

Download on the App Store